Berlin, South Carolina
Current Conditions -  °F | °C
As of 4:35 PM on Saturday 20 Dec 2014 (Local Time) from KAIK Reporting Station
Haze Haze  
Wind Chill: 45°   Ceiling: 400
Heat Index: 48°   Visibility: 2mi
Dew Point: 48°   Wind: 7mph
Humidity: 100%   Direction: 40°NE
Pressure: 30.2"   Gusts: NA
Location:  33.5901°N, 81.3327°W
Report Text: KAIK 202135Z AUTO 04006KT 2SM BR OVC004 09/09 A3020 RMK AO2 PNO
Loading
Personal Weather Stations






























Interactive Weather Map New forecast layout! Learn more

10-Day Weather Forecast

Advertisements
Track Severe Weather on mobile